Ahoskie, NC

4:03 AM EDT on October 17, 2017 (GMT -0400)
Tri County

Weather History for KASJ - November, 2013

Change the Weather History Date:

Wednesday, November 13, 2013

  Actual Average (KEMV) Record (KEMV)
Temperature  
Mean Temperature 33 °F -  
Max Temperature 43 °F 62 °F 79 °F (1989)
Min Temperature 23 °F 36 °F 17 °F (2016)
Degree Days  
Heating Degree Days 32    
Moisture  
Dew Point 18 °F    
Average Humidity 54    
Maximum Humidity 89    
Minimum Humidity 31    
Precipitation  
Precipitation 0.00 in - - ()
Sea Level Pressure  
Sea Level Pressure 30.46 in    
Wind  
Wind Speed 6 mph (NNW)    
Max Wind Speed 15 mph    
Max Gust Speed 24 mph    
Visibility 10 miles    
Events      
Averages and records for this station are not official NWS values.
T = Trace of Precipitation, MM = Missing Value Source: NWS Daily Summary

Daily Weather History Graph

Daily Weather History Graph

Search for Another Location

Airport or City:

Trip Planner

Search our weather history database for the weather conditions in past years. The results will help you decide how hot, cold, wet, or windy it might be!

Date:

Astronomy

Nov. 13, 2013 Rise Set
Actual Time 6:43 AM EST 5:01 PM EST
Civil Twilight 6:16 AM EST 5:28 PM EST
Nautical Twilight 5:45 AM EST 5:59 PM EST
Astronomical Twilight 5:15 AM EST 6:30 PM EST
Moon 2:42 PM EST (11/13) 2:41 AM EST (11/13)
Length of Visible Light 11h 12m
Length of Day
10h 17m
Waxing Gibbous, 84% of the Moon is Illuminated
Nov 13
Waxing Gibbous
Nov 17
Full
Nov 25
Last Quarter
Dec 2
New
Dec 9
First Quarter

Hourly Weather History & Observations

Time (EST) Temp. Windchill Dew Point Humidity Pressure Visibility Wind Dir Wind Speed Gust Speed Precip Events Conditions
12:15 AM 36.3 °F 31.6 °F 15.1 °F 42% 30.40 in 10.0 mi North 5.8 mph - N/A   Clear
12:35 AM 35.6 °F 28.6 °F 14.7 °F 42% 30.40 in 10.0 mi NNW 9.2 mph 16.1 mph N/A   Clear
12:55 AM 34.9 °F 27.7 °F 14.5 °F 43% 30.40 in 10.0 mi NNW 9.2 mph - N/A   Clear
1:15 AM 34.7 °F 28.8 °F 14.9 °F 44% 30.40 in 10.0 mi North 6.9 mph - N/A   Clear
1:35 AM 33.3 °F 27.1 °F 15.8 °F 49% 30.40 in 10.0 mi NNW 6.9 mph - N/A   Clear
1:55 AM 33.1 °F 26.1 °F 16.0 °F 50% 30.40 in 10.0 mi NNW 8.1 mph - N/A   Clear
2:15 AM 32.7 °F 25.7 °F 16.3 °F 51% 30.41 in 10.0 mi NNW 8.1 mph - N/A   Clear
2:35 AM 32.4 °F 25.3 °F 16.5 °F 52% 30.41 in 10.0 mi North 8.1 mph - N/A   Clear
2:55 AM 32.0 °F 24.8 °F 16.9 °F 54% 30.42 in 10.0 mi North 8.1 mph - N/A   Clear
3:15 AM 32.0 °F 24.2 °F 17.1 °F 54% 30.42 in 10.0 mi North 9.2 mph - N/A   Clear
3:35 AM 32.0 °F 24.2 °F 17.1 °F 54% 30.42 in 10.0 mi North 9.2 mph - N/A   Clear
3:55 AM 31.6 °F 27.0 °F 17.1 °F 55% 30.42 in 10.0 mi NNW 4.6 mph - N/A   Clear
4:15 AM 30.6 °F 25.8 °F 17.4 °F 58% 30.42 in 10.0 mi NNW 4.6 mph - N/A   Clear
4:35 AM 30.2 °F 25.4 °F 17.4 °F 59% 30.42 in 10.0 mi North 4.6 mph - N/A   Clear
4:55 AM 30.2 °F 23.4 °F 17.4 °F 59% 30.43 in 10.0 mi North 6.9 mph - N/A   Clear
5:15 AM 30.2 °F 25.4 °F 17.4 °F 59% 30.44 in 10.0 mi NNW 4.6 mph - N/A   Clear
5:35 AM 29.8 °F - 17.6 °F 60% 30.45 in 10.0 mi Calm Calm - N/A   Clear
5:55 AM 28.6 °F - 18.3 °F 65% 30.45 in 10.0 mi Calm Calm - N/A   Clear
6:15 AM 28.4 °F - 18.1 °F 65% 30.45 in 10.0 mi Calm Calm - N/A   Clear
6:35 AM 28.2 °F - 18.5 °F 67% 30.46 in 10.0 mi Calm Calm - N/A   Clear
6:55 AM 28.0 °F - 18.3 °F 67% 30.47 in 10.0 mi Calm Calm - N/A   Clear
7:15 AM 28.9 °F 25.2 °F 18.3 °F 65% 30.47 in 10.0 mi NNW 3.5 mph - N/A   Clear
7:35 AM 30.2 °F - 18.1 °F 61% 30.48 in 10.0 mi Calm Calm - N/A   Clear
7:55 AM 31.3 °F 27.9 °F 18.3 °F 59% 30.49 in 10.0 mi NNW 3.5 mph - N/A   Clear
8:15 AM 32.2 °F 25.8 °F 17.8 °F 55% 30.50 in 10.0 mi NNW 6.9 mph - N/A   Clear
8:35 AM 33.6 °F 26.8 °F 18.3 °F 54% 30.50 in 10.0 mi NNW 8.1 mph - N/A   Clear
8:55 AM 34.9 °F 29.9 °F 17.6 °F 49% 30.50 in 10.0 mi NNW 5.8 mph - N/A   Clear
9:15 AM 36.0 °F 27.5 °F 16.9 °F 46% 30.50 in 10.0 mi North 12.7 mph 19.6 mph N/A   Clear
9:35 AM 36.9 °F 27.8 °F 16.9 °F 44% 30.50 in 10.0 mi North 15.0 mph 20.7 mph N/A   Clear
9:55 AM 38.1 °F 30.2 °F 17.1 °F 43% 30.51 in 10.0 mi North 12.7 mph 23.0 mph N/A   Clear
10:15 AM 38.7 °F 30.1 °F 16.7 °F 41% 30.50 in 10.0 mi NNW 15.0 mph 20.7 mph N/A   Clear
10:35 AM 39.2 °F 31.6 °F 16.3 °F 40% 30.50 in 10.0 mi North 12.7 mph 24.2 mph N/A   Clear
10:55 AM 39.9 °F 32.5 °F 15.8 °F 38% 30.49 in 10.0 mi NNW 12.7 mph 19.6 mph N/A   Clear
11:15 AM 40.5 °F 33.6 °F 14.9 °F 35% 30.49 in 10.0 mi North 11.5 mph 23.0 mph N/A   Clear
11:35 AM 40.6 °F 34.3 °F 14.7 °F 35% 30.48 in 10.0 mi NNW 10.4 mph 20.7 mph N/A   Clear
11:55 AM 41.0 °F 33.5 °F 14.7 °F 34% 30.47 in 10.0 mi North 13.8 mph 24.2 mph N/A   Clear
12:15 PM 40.5 °F 34.6 °F 14.0 °F 34% 30.46 in 10.0 mi NNW 9.2 mph 18.4 mph N/A   Clear
12:35 PM 42.1 °F 38.4 °F 15.3 °F 34% 30.46 in 10.0 mi NNW 5.8 mph 17.3 mph N/A   Clear
12:55 PM 42.6 °F 37.2 °F 15.4 °F 33% 30.45 in 10.0 mi NNW 9.2 mph - N/A   Clear
1:15 PM 42.3 °F 38.6 °F 14.7 °F 33% 30.45 in 10.0 mi NNW 5.8 mph 17.3 mph N/A   Clear
1:35 PM 42.3 °F 37.9 °F 14.5 °F 33% 30.45 in 10.0 mi North 6.9 mph - N/A   Clear
1:55 PM 43.3 °F 37.7 °F 14.7 °F 32% 30.45 in 10.0 mi NNW 10.4 mph 17.3 mph N/A   Clear
2:15 PM 43.0 °F 37.2 °F 14.9 °F 32% 30.45 in 10.0 mi NNW 10.4 mph 16.1 mph N/A   Clear
2:35 PM 43.2 °F 37.9 °F 14.4 °F 31% 30.44 in 10.0 mi North 9.2 mph - N/A   Clear
2:55 PM 43.0 °F 41.3 °F 14.0 °F 31% 30.44 in 10.0 mi NNW 3.5 mph 18.4 mph N/A   Clear
3:15 PM 43.2 °F 37.9 °F 14.5 °F 31% 30.45 in 10.0 mi North 9.2 mph - N/A   Clear
3:35 PM 42.8 °F 38.6 °F 14.4 °F 32% 30.45 in 10.0 mi North 6.9 mph - N/A   Clear
3:55 PM 42.3 °F 40.5 °F 14.4 °F 32% 30.45 in 10.0 mi North 3.5 mph - N/A   Clear
4:15 PM 41.7 °F 38.0 °F 15.3 °F 34% 30.46 in 10.0 mi NW 5.8 mph - N/A   Clear
4:35 PM 41.0 °F 39.0 °F 15.6 °F 36% 30.46 in 10.0 mi NNW 3.5 mph - N/A   Clear
4:55 PM 40.1 °F - 15.8 °F 37% 30.47 in 10.0 mi Calm Calm - N/A   Clear
5:15 PM 38.1 °F - 17.4 °F 43% 30.48 in 10.0 mi Calm Calm - N/A   Clear
5:35 PM 37.2 °F - 18.5 °F 47% 30.48 in 10.0 mi Calm Calm - N/A   Clear
5:55 PM 33.8 °F - 19.6 °F 56% 30.48 in 10.0 mi Calm Calm - N/A   Clear
6:15 PM 32.7 °F - 20.1 °F 60% 30.49 in 10.0 mi Calm Calm - N/A   Clear
6:35 PM 31.6 °F - 21.2 °F 65% 30.49 in 10.0 mi Calm Calm - N/A   Clear
6:55 PM 30.4 °F - 21.0 °F 68% 30.49 in 10.0 mi Calm Calm - N/A   Clear
7:15 PM 29.8 °F - 21.0 °F 70% 30.48 in 10.0 mi Calm Calm - N/A   Clear
7:35 PM 29.1 °F - 21.2 °F 72% 30.49 in 10.0 mi Calm Calm - N/A   Clear
7:55 PM 28.6 °F - 21.4 °F 74% 30.49 in 10.0 mi Calm Calm - N/A   Clear
8:15 PM 28.2 °F - 21.7 °F 77% 30.49 in 10.0 mi Calm Calm - N/A   Clear
8:35 PM 27.1 °F - 21.7 °F 80% 30.49 in 10.0 mi Calm Calm - N/A   Clear
8:55 PM 27.3 °F - 21.9 °F 80% 30.48 in 10.0 mi Calm Calm - N/A   Clear
9:15 PM 26.8 °F - 21.9 °F 82% 30.48 in 10.0 mi Calm Calm - N/A   Clear
9:35 PM 26.2 °F - 21.7 °F 83% 30.48 in 10.0 mi Calm Calm - N/A   Clear
9:55 PM 25.9 °F - 21.9 °F 85% 30.48 in 10.0 mi Calm Calm - N/A   Clear
10:15 PM 25.7 °F - 21.6 °F 84% 30.48 in 10.0 mi Calm Calm - N/A   Clear
10:35 PM 25.2 °F - 21.4 °F 86% 30.48 in 10.0 mi Calm Calm - N/A   Clear
10:55 PM 24.8 °F - 21.6 °F 87% 30.48 in 10.0 mi Calm Calm - N/A   Clear
11:15 PM 23.5 °F - 20.8 °F 89% 30.48 in 10.0 mi Calm Calm - N/A   Clear
11:35 PM 24.8 °F - 21.9 °F 89% 30.48 in 10.0 mi Calm Calm - N/A   Clear
11:55 PM 24.4 °F - 21.7 °F 89% 30.47 in 10.0 mi Calm Calm - N/A   Clear